Location: Riverside Cemetery
(38.3047°N, 99.7773°W)
Time: 19:00:12
(UTC+00:00)

Cosmos 1174 - Pass Details

Date: 19 September 2020
Orbit: 362 x 1155 km, 66.1° (Epoch: 22 October)

Event Time Altitude Azimuth Distance (km) Brightness Sun altitude
Rises 02:00:11 0° 199° (SSW) 2,780 7.5 -16.1°
Reaches altitude 10° 02:02:11 10° 196° (SSW) 1,993 6.7 -16.5°
Maximum altitude 02:06:41 65° 114° (ESE) 808 4.3 -17.3°
Drops below altitude 10° 02:12:26 10° 34° (NE) 2,537 7.0 -18.4°
Sets 02:15:15 0° 32° (NNE) 3,610 7.8 -18.9°
